• In Belarus
  • List of Countries
  • For 7 days
  • Water Temperature
  • Satellite Maps
  • Weather Map
  • Weather Widgets
  • user-avatar
    Login

    Hourly Weather Baden-Baden

    Today, 17 November, Saturday

    Time Temperature Precipitation Wind Pressure Humidity
    00:00 +2°C° 0 mm 2 mps 737 mmHg 86%
    01:00 +2°C° 0 mm 2 mps 737 mmHg 88%
    02:00 +2°C° 0 mm 2 mps 736 mmHg 88%
    03:00 0°C° 0 mm 3 mps 736 mmHg 89%
    04:00 0°C° 0 mm 3 mps 736 mmHg 89%
    05:00 0°C° 0 mm 3 mps 736 mmHg 88%
    06:00 0°C° 0 mm 3 mps 736 mmHg 87%
    07:00 0°C° 0 mm 3 mps 736 mmHg 87%
    08:00 +1°C° 0 mm 3 mps 736 mmHg 81%
    09:00 +1°C° 0 mm 4 mps 736 mmHg 76%
    10:00 +3°C° 0 mm 4 mps 736 mmHg 70%
    11:00 +4°C° 0 mm 4 mps 736 mmHg 64%
    12:00 +5°C° 0 mm 5 mps 736 mmHg 58%
    13:00 +7°C° 0 mm 5 mps 736 mmHg 52%
    14:00 +6°C° 0 mm 5 mps 736 mmHg 52%
    15:00 +6°C° 0 mm 5 mps 736 mmHg 53%
    16:00 +6°C° 0 mm 4 mps 736 mmHg 53%
    17:00 +5°C° 0 mm 5 mps 736 mmHg 54%
    18:00 +3°C° 0 mm 5 mps 736 mmHg 54%
    19:00 +2°C° 0 mm 5 mps 736 mmHg 55%
    20:00 +3°C° 0 mm 4 mps 736 mmHg 58%
    21:00 +1°C° 0 mm 4 mps 736 mmHg 60%
    22:00 +1°C° 0 mm 4 mps 736 mmHg 62%
    23:00 0°C° 0 mm 4 mps 736 mmHg 64%

    Tomorrow, 18 November, Sunday

    Time Temperature Precipitation Wind Pressure Humidity
    00:00 0°C° 0 mm 4 mps 736 mmHg 66%
    01:00 0°C° 0 mm 4 mps 736 mmHg 68%
    02:00 -1°C° 0 mm 4 mps 735 mmHg 69%
    03:00 0°C° 0 mm 3 mps 735 mmHg 70%
    04:00 0°C° 0 mm 3 mps 735 mmHg 71%
    05:00 -1°C° 0 mm 3 mps 735 mmHg 71%
    06:00 -1°C° 0 mm 3 mps 735 mmHg 71%
    07:00 -1°C° 0 mm 3 mps 735 mmHg 72%
    08:00 0°C° 0 mm 3 mps 735 mmHg 67%
    09:00 0°C° 0 mm 4 mps 735 mmHg 63%
    10:00 0°C° 0 mm 4 mps 735 mmHg 59%
    11:00 +3°C° 0 mm 4 mps 735 mmHg 56%
    12:00 +4°C° 0 mm 4 mps 735 mmHg 52%
    13:00 +5°C° 0 mm 4 mps 734 mmHg 49%
    14:00 +5°C° 0 mm 4 mps 734 mmHg 52%
    15:00 +4°C° 0 mm 3 mps 733 mmHg 55%
    16:00 +4°C° 0 mm 3 mps 733 mmHg 57%
    17:00 +3°C° 0 mm 3 mps 733 mmHg 60%
    18:00 +2°C° 0 mm 3 mps 733 mmHg 63%
    19:00 +1°C° 0 mm 3 mps 733 mmHg 66%
    20:00 +1°C° 0 mm 3 mps 733 mmHg 63%
    21:00 +1°C° 0 mm 3 mps 733 mmHg 61%
    22:00 -1°C° 0 mm 4 mps 732 mmHg 59%
    23:00 -1°C° 0 mm 4 mps 732 mmHg 59%

    Day after tomorrow, 19 November, Monday

    Time Temperature Precipitation Wind Pressure Humidity
    00:00 -2°C° 0 mm 4 mps 732 mmHg 59%
    01:00 -2°C° 0 mm 4 mps 731 mmHg 60%
    02:00 -2°C° 0 mm 4 mps 731 mmHg 62%
    03:00 -3°C° 0 mm 4 mps 730 mmHg 65%
    04:00 -3°C° 0 mm 4 mps 730 mmHg 68%
    05:00 -3°C° 0 mm 4 mps 729 mmHg 72%
    06:00 -3°C° 0 mm 4 mps 729 mmHg 75%
    07:00 -3°C° 0 mm 4 mps 728 mmHg 79%
    08:00 -2°C° 0 mm 5 mps 728 mmHg 76%
    09:00 -1°C° 0 mm 5 mps 728 mmHg 73%
    10:00 -1°C° 0 mm 6 mps 728 mmHg 70%
    11:00 +1°C° 0 mm 6 mps 727 mmHg 67%
    12:00 +1°C° 0 mm 6 mps 727 mmHg 64%
    13:00 +2°C° 0 mm 6 mps 727 mmHg 61%
    14:00 +2°C° 0 mm 6 mps 726 mmHg 62%
    15:00 +1°C° 0 mm 6 mps 726 mmHg 63%
    16:00 +1°C° 0 mm 5 mps 725 mmHg 64%
    17:00 +1°C° 0 mm 5 mps 725 mmHg 66%
    18:00 0°C° 0 mm 5 mps 725 mmHg 67%
    19:00 0°C° 0 mm 5 mps 725 mmHg 69%
    20:00 0°C° 0 mm 5 mps 725 mmHg 70%
    21:00 -1°C° 0 mm 5 mps 724 mmHg 70%
    22:00 -1°C° 0 mm 5 mps 724 mmHg 71%
    23:00 -1°C° 0 mm 4 mps 724 mmHg 72%

    20 November, Tuesday

    Time Temperature Precipitation Wind Pressure Humidity
    00:00 -2°C° 0 mm 4 mps 723 mmHg 74%
    01:00 -2°C° 0 mm 4 mps 723 mmHg 75%
    02:00 -2°C° 0 mm 4 mps 722 mmHg 77%
    03:00 -3°C° 0 mm 4 mps 722 mmHg 78%
    04:00 -3°C° 0 mm 4 mps 721 mmHg 79%
    05:00 -3°C° 0 mm 4 mps 721 mmHg 79%
    06:00 -3°C° 0 mm 4 mps 720 mmHg 79%
    07:00 -3°C° 0 mm 4 mps 720 mmHg 79%
    08:00 -2°C° 0 mm 5 mps 720 mmHg 75%
    09:00 -1°C° 0 mm 5 mps 719 mmHg 72%
    10:00 -1°C° 0 mm 5 mps 719 mmHg 69%
    11:00 0°C° 0 mm 5 mps 718 mmHg 66%
    12:00 +1°C° 0 mm 5 mps 718 mmHg 64%
    13:00 +3°C° 0 mm 4 mps 717 mmHg 61%
    14:00 +3°C° 0 mm 4 mps 717 mmHg 64%
    15:00 +3°C° 0 mm 3 mps 717 mmHg 66%
    16:00 +3°C° 0 mm 3 mps 717 mmHg 69%
    17:00 +4°C° 0.1 mm 2 mps 717 mmHg 73%
    18:00 +3°C° 0.1 mm 2 mps 717 mmHg 77%
    19:00 +3°C° 0.1 mm 2 mps 717 mmHg 81%
    20:00 +4°C° 0 mm 1 mps 717 mmHg 82%
    21:00 +3°C° 0 mm 1 mps 718 mmHg 84%
    22:00 +3°C° 0 mm 1 mps 718 mmHg 85%
    23:00 +2°C° 0.1 mm 2 mps 718 mmHg 83%

    21 November, Wednesday

    Time Temperature Precipitation Wind Pressure Humidity
    00:00 +2°C° 0.1 mm 2 mps 719 mmHg 81%
    01:00 +2°C° 0.1 mm 2 mps 719 mmHg 80%
    02:00 +1°C° 0 mm 2 mps 720 mmHg 81%
    03:00 -1°C° 0 mm 2 mps 720 mmHg 82%
    04:00 -1°C° 0 mm 2 mps 720 mmHg 83%
    05:00 -1°C° 0 mm 2 mps 721 mmHg 84%
    06:00 -2°C° 0 mm 2 mps 721 mmHg 85%
    07:00 -2°C° 0 mm 2 mps 722 mmHg 86%
    08:00 +1°C° 0 mm 1 mps 723 mmHg 81%
    09:00 +3°C° 0 mm 1 mps 723 mmHg 75%
    10:00 +4°C° 0 mm 1 mps 724 mmHg 70%
    11:00 +5°C° 0 mm 1 mps 724 mmHg 65%
    12:00 +6°C° 0 mm 1 mps 725 mmHg 59%
    13:00 +7°C° 0 mm 1 mps 725 mmHg 54%
    14:00 +6°C° 0 mm 1 mps 725 mmHg 58%
    15:00 +6°C° 0 mm 1 mps 725 mmHg 61%
    16:00 +5°C° 0 mm 1 mps 726 mmHg 64%
    17:00 +5°C° 0 mm 1 mps 726 mmHg 68%
    18:00 +4°C° 0 mm 1 mps 727 mmHg 71%
    19:00 +3°C° 0 mm 1 mps 727 mmHg 74%
    20:00 +3°C° 0 mm 1 mps 728 mmHg 75%
    21:00 +3°C° 0 mm 1 mps 728 mmHg 76%
    22:00 +2°C° 0 mm 1 mps 728 mmHg 77%
    23:00 +2°C° 0 mm 1 mps 729 mmHg 77%

    22 November, Thursday

    Time Temperature Precipitation Wind Pressure Humidity
    00:00 +2°C° 0 mm 1 mps 729 mmHg 78%
    01:00 +2°C° 0 mm 1 mps 729 mmHg 79%
    02:00 +2°C° 0 mm 1 mps 729 mmHg 80%
    03:00 +1°C° 0 mm 1 mps 729 mmHg 81%
    04:00 +1°C° 0 mm 1 mps 729 mmHg 82%
    05:00 +1°C° 0 mm 1 mps 729 mmHg 83%
    06:00 +1°C° 0 mm 1 mps 730 mmHg 83%
    07:00 +1°C° 0 mm 1 mps 730 mmHg 84%
    08:00 +2°C° 0 mm 1 mps 730 mmHg 81%
    09:00 +3°C° 0 mm 1 mps 730 mmHg 78%
    10:00 +4°C° 0 mm 1 mps 730 mmHg 75%
    11:00 +5°C° 0 mm 1 mps 730 mmHg 72%
    12:00 +6°C° 0 mm 1 mps 730 mmHg 70%
    13:00 +7°C° 0 mm 1 mps 730 mmHg 68%
    14:00 +6°C° 0 mm 1 mps 730 mmHg 71%
    15:00 +6°C° 0 mm 1 mps 730 mmHg 75%
    16:00 +5°C° 0 mm 1 mps 731 mmHg 78%
    17:00 +5°C° 0.1 mm 1 mps 731 mmHg 81%
    18:00 +4°C° 0.1 mm 1 mps 731 mmHg 84%
    19:00 +4°C° 0.1 mm 1 mps 731 mmHg 86%
    20:00 +4°C° 0.1 mm 1 mps 731 mmHg 87%
    21:00 +4°C° 0.1 mm 1 mps 732 mmHg 88%
    22:00 +4°C° 0.1 mm 1 mps 732 mmHg 89%
    23:00 +4°C° 0 mm 1 mps 732 mmHg 88%
    Show more